Tracking 25701 objects as of 3-Jul-2022
HD Live streaming from Space Station
objects crossing your sky now

ATLAS 5 CENTAUR DEB

Track ATLAS 5 CENTAUR DEB now!


NORAD ID: 44003
Int'l Code: 2014-055BJ
Perigee: 9,163.5 km
Apogee: 34,903.9 km
Inclination: 21.4 °
Period: 794.0 minutes
Semi major axis: 28404 km
RCS: Unknown
Launch date: September 17, 2014
Source: United States (US)
Launch site: AIR FORCE EASTERN TEST RANGE (AFETR)

Note: This is SATELLITE DEBRIS
aabbcc
Your satellite tracking list
Your tracking list is empty




NASA's NSSDC Master Catalog

Two Line Element Set (TLE):
1 44003U 14055BJ  22183.87306092 -.00000086  00000-0  00000-0 0  9992
2 44003  21.4217 301.2970 4531004 249.6550  57.2571  1.81350030 25241
Source of the keplerian elements: AFSPC